GFSNW_700_spd_315.txt.gz
Wind_Speed
47 46 45 44 47 45 45 44 39 34 46 39 37 25 21 17 21 12 16 18 16 21 32 21 15 22 20 27 35 38 21 8 16 17 7 23 12 18 8 4 5 6 6 4
46 46 47 48 47 48 49 47 39 36 43 40 37 30 20 18 20 15 17 16 18 27 29 13 17 25 19 22 32 31 20 13 11 5 4 25 20 28 9 1 1 10 3 5
44 46 47 48 47 47 46 48 43 41 42 38 34 34 27 22 21 14 18 16 25 29 29 25 13 29 25 18 27 26 9 15 16 7 8 15 23 30 15 6 7 6 9 12
46 45 47 50 49 47 46 46 46 44 43 40 34 29 28 25 26 18 20 18 24 26 25 27 20 23 22 18 25 29 20 4 6 7 7 19 30 29 29 25 10 7 11 11
46 46 46 49 48 47 43 43 44 49 45 42 36 31 30 27 25 17 19 21 25 22 24 26 28 18 16 19 24 30 26 10 6 9 8 9 14 27 27 22 24 21 14 12
44 44 46 47 46 46 42 44 46 47 45 44 37 30 29 26 24 14 15 19 25 22 22 18 11 11 11 15 21 30 27 20 5 2 5 8 4 28 23 21 26 16 15 13
41 42 44 44 42 43 37 39 44 44 45 43 29 32 27 23 20 21 11 15 20 21 21 16 6 10 10 9 15 23 26 24 8 3 1 4 9 13 15 9 12 19 16 14
39 40 43 43 42 37 37 38 41 39 44 39 31 34 28 22 16 12 10 12 16 17 19 14 7 8 10 6 13 15 23 21 6 5 7 5 8 13 13 8 5 19 18 15
38 39 41 42 40 38 35 33 35 35 40 38 34 29 27 23 19 9 11 10 13 15 17 13 7 4 15 7 12 14 20 13 11 4 3 3 9 8 9 4 3 17 17 16
37 40 41 42 40 40 38 36 35 37 39 36 28 25 26 22 21 19 16 15 11 13 15 11 8 3 16 8 13 20 21 20 16 10 3 1 12 9 8 4 6 15 15 15
37 39 40 42 40 39 37 38 36 35 38 27 24 24 18 22 17 18 18 17 8 9 10 6 8 6 13 9 20 17 11 9 6 8 3 2 14 11 6 7 11 13 14 14
36 38 41 42 39 38 38 38 38 36 32 24 27 15 22 21 17 18 18 16 14 8 8 9 7 17 14 20 11 16 8 7 7 4 6 19 16 11 12 12 13 12 14 15
36 39 42 40 38 37 38 39 37 35 30 27 15 20 22 21 19 17 14 18 15 14 13 15 15 17 16 17 13 15 11 8 6 9 12 13 13 14 15 17 18 15 15 15
36 40 41 40 37 38 39 38 33 29 29 21 22 23 19 12 14 15 14 16 16 20 17 23 26 25 19 15 18 18 14 11 8 9 12 12 14 16 14 17 18 18 17 17
37 40 41 40 38 40 39 36 31 29 25 24 20 16 10 15 13 13 9 7 13 20 26 28 28 23 19 19 15 3 8 9 8 7 12 15 16 18 18 16 16 17 16 15
37 39 41 38 39 39 38 35 32 30 24 21 14 11 15 10 12 9 9 18 26 26 26 28 22 23 17 9 5 2 5 8 10 13 13 15 16 14 15 15 15 15 16 15
37 40 40 38 39 38 31 34 29 23 18 17 10 7 5 16 16 15 22 31 38 33 29 19 21 19 12 7 3 7 6 7 10 12 12 12 14 14 13 14 14 14 14 15
39 40 41 39 40 34 34 31 24 15 13 10 7 8 16 21 21 31 42 38 33 29 20 17 13 7 3 3 3 6 7 7 8 10 11 12 12 12 12 12 12 12 12 13
38 39 39 40 36 35 32 26 16 14 11 8 9 19 18 15 43 42 36 27 22 13 12 10 7 2 4 8 8 8 8 9 8 9 10 11 12 13 13 12 12 12 12 12
36 37 37 36 37 33 25 14 10 9 12 16 12 16 36 45 42 36 26 10 7 6 3 2 2 9 5 7 10 12 11 11 12 11 9 10 10 11 12 12 12 11 11 11
33 33 34 35 30 21 10 6 7 8 13 10 17 38 44 40 36 26 7 8 6 3 2 3 3 4 5 8 11 12 12 12 13 14 14 13 12 11 10 11 12 12 12 11
29 28 31 25 11 5 5 6 9 11 8 22 37 39 37 32 19 7 7 5 4 2 3 3 4 5 9 11 12 13 12 12 12 13 13 13 13 13 12 12 12 12 12 11
26 25 14 7 4 4 4 10 18 20 27 35 36 34 29 12 9 6 5 4 3 7 4 2 2 10 13 13 13 12 14 14 14 14 14 15 14 13 13 12 13 13 12 12
20 11 9 5 4 5 18 24 28 29 30 31 29 27 15 11 4 5 5 6 6 2 0 1 11 17 16 16 16 16 14 14 15 14 14 14 14 14 14 13 13 13 12 12
8 6 5 5 14 21 23 24 25 26 26 25 24 18 10 5 4 3 5 5 3 2 3 16 20 20 20 18 17 16 16 14 13 13 13 12 12 13 13 12 12 13 12 11
4 5 10 16 17 19 20 19 20 22 22 22 17 7 5 4 5 3 4 8 4 9 24 25 25 24 23 23 22 20 19 17 15 13 13 12 11 10 11 11 10 11 11 11
4 10 13 14 16 16 17 19 21 22 21 20 9 6 3 8 5 5 6 13 24 30 30 30 31 32 30 30 29 27 25 23 21 18 16 15 13 12 11 11 9 10 11 11

GFSNW_700_spd_321.txt.gz
Wind_Speed
35 35 37 38 38 37 34 34 30 31 41 37 41 31 26 22 22 17 11 10 16 18 25 17 11 21 19 21 28 28 21 10 19 15 12 28 28 30 13 2 4 5 3 3
34 34 37 39 42 44 42 39 29 33 40 38 39 30 27 23 23 20 16 13 14 17 21 13 16 20 15 17 25 27 22 9 12 8 9 19 24 33 18 7 5 7 3 2
32 32 36 39 41 44 43 41 35 35 38 38 37 33 30 26 21 14 17 15 15 21 23 19 15 25 21 13 18 24 17 9 12 6 8 12 26 29 28 3 8 5 9 3
34 33 36 38 40 42 42 41 36 36 37 35 33 31 30 28 28 22 13 14 15 18 20 24 17 31 25 11 14 22 24 13 21 15 8 8 22 24 26 29 16 8 9 11
34 33 35 37 39 42 41 36 37 41 37 34 34 30 32 29 30 25 17 20 14 15 18 20 30 27 20 12 15 20 23 20 20 7 5 6 7 19 17 23 18 15 10 10
35 33 34 35 37 41 41 38 37 39 39 35 35 30 30 28 29 20 21 23 22 16 18 20 24 19 15 15 13 17 21 24 15 2 12 3 4 20 17 12 21 18 17 18
37 33 31 33 34 36 36 36 35 36 37 35 30 29 28 23 23 25 20 19 20 21 21 19 20 16 12 13 8 11 19 20 13 7 7 3 4 12 12 6 14 17 15 15
37 33 31 32 31 34 36 36 35 36 38 37 30 33 28 28 23 20 17 17 22 22 24 19 12 9 9 8 7 7 16 18 8 7 4 2 5 10 12 7 3 19 17 15
37 37 34 32 31 33 34 35 35 35 37 37 35 31 30 31 29 24 21 14 15 23 19 14 7 4 6 4 6 6 19 16 5 7 2 2 3 8 10 6 1 17 17 17
37 39 37 34 32 34 36 37 37 37 39 38 35 29 30 29 26 27 25 24 20 10 16 15 9 8 9 5 7 7 19 14 5 4 3 3 3 10 9 3 6 16 17 16
35 40 38 37 34 34 36 37 37 37 41 40 32 32 27 25 23 23 24 20 12 17 9 8 11 10 12 10 13 14 11 9 3 3 4 3 7 8 6 8 12 15 15 15
43 40 37 38 35 34 37 38 39 39 38 37 32 26 23 23 22 23 20 18 15 10 13 15 18 13 12 20 12 16 8 9 8 7 6 11 15 12 11 14 15 15 15 15
42 40 38 37 34 34 36 37 38 40 40 32 27 25 25 24 24 23 18 18 14 17 21 21 11 14 13 17 14 17 14 14 9 10 13 13 13 14 15 15 16 16 16 16
38 40 37 37 37 35 36 37 39 39 30 28 31 28 27 26 22 19 20 16 14 17 17 23 26 20 17 18 22 20 18 14 11 11 13 14 15 16 17 16 16 16 15 17
35 39 35 36 37 36 38 39 39 31 29 34 31 27 23 16 20 21 18 16 18 22 29 34 28 27 25 24 18 12 14 14 11 11 12 14 16 17 18 16 15 15 14 12
35 37 36 36 38 38 40 42 36 34 37 31 21 16 19 21 20 21 20 25 27 33 40 24 21 23 16 10 13 13 12 14 15 14 11 13 16 16 16 15 14 14 13 13
37 36 36 39 40 40 40 38 35 37 33 25 12 10 11 14 19 20 25 33 39 28 21 16 18 19 17 15 12 11 11 11 13 16 15 13 14 13 14 13 12 13 12 12
39 36 39 40 41 41 40 36 37 35 24 17 8 10 14 21 22 25 41 32 24 14 10 11 12 12 12 8 10 10 9 10 11 13 16 15 14 14 13 13 12 12 12 11
39 36 39 39 40 41 34 35 36 31 20 9 10 15 16 12 34 38 31 22 11 9 7 9 7 8 7 7 7 9 11 10 10 13 15 15 15 14 13 13 13 12 12 11
39 39 41 38 39 37 34 31 25 12 10 11 16 18 19 34 36 30 21 7 6 6 7 7 7 11 11 9 9 8 9 11 11 11 13 14 14 14 13 13 13 12 11 10
37 39 39 39 35 31 26 10 6 6 6 10 12 22 33 34 30 23 7 5 5 4 4 4 5 6 8 9 10 11 12 13 14 13 13 13 12 11 10 10 11 11 11 10
35 37 36 34 28 14 7 6 5 5 5 10 22 30 30 30 20 8 6 4 4 5 4 5 4 7 7 6 9 12 15 16 16 17 15 15 15 14 13 13 12 11 11 11
34 32 29 13 10 9 7 6 5 9 20 23 24 24 27 15 9 6 4 3 6 7 5 5 6 6 6 10 16 20 22 23 22 20 20 19 16 17 16 14 14 14 13 13
31 25 14 9 9 10 10 11 16 19 18 20 22 23 16 13 6 4 4 5 5 5 5 6 9 10 15 27 32 29 23 22 21 20 20 19 17 16 17 16 15 14 14 14
27 12 9 13 15 15 11 13 15 15 16 18 21 19 11 5 4 3 5 4 5 7 7 11 14 26 36 34 31 28 23 22 24 23 21 19 18 15 15 15 14 14 12 12
25 18 15 15 12 9 8 10 12 13 14 17 17 9 4 2 3 4 5 5 6 11 19 29 37 36 34 32 28 26 23 21 19 19 20 21 19 17 15 14 13 12 11 10
11 15 19 15 8 4 6 8 9 11 13 14 8 5 2 7 4 4 6 8 21 31 35 35 34 33 31 30 26 23 22 20 19 17 17 17 19 19 18 16 15 12 11 9

GFSNW_700_spd_327.txt.gz
Wind_Speed
30 30 30 30 31 31 31 29 22 26 16 23 28 24 19 22 19 18 13 13 11 15 13 15 9 10 12 17 24 20 10 12 20 21 16 10 11 20 15 6 8 12 11 5
32 34 34 34 33 34 33 32 24 26 19 25 27 26 20 20 20 18 16 15 14 16 14 11 10 14 17 16 25 10 16 7 16 12 8 7 12 19 21 14 8 5 5 5
33 34 35 35 35 36 35 33 25 33 24 29 28 30 24 22 22 19 20 19 16 17 16 13 15 22 19 27 23 8 16 11 12 13 22 20 9 16 20 15 5 14 5 14
31 33 35 37 36 38 38 35 30 30 29 25 30 31 26 25 24 25 24 13 16 17 14 18 16 20 20 22 22 10 14 16 13 24 15 14 9 12 16 14 8 5 14 9
33 33 34 38 39 38 38 35 35 36 33 32 30 30 26 25 27 30 20 18 18 17 21 19 29 25 22 19 17 14 17 10 20 17 9 11 13 12 12 9 12 6 7 8
34 34 35 37 40 40 40 38 37 36 36 35 32 27 26 30 30 25 23 23 22 22 20 20 23 24 24 28 27 20 20 10 10 9 13 16 9 12 10 7 11 13 11 17
36 36 35 39 38 39 37 36 37 36 39 36 33 30 28 32 27 28 27 23 23 21 27 27 21 17 17 17 18 16 17 12 7 11 13 10 7 13 9 8 8 10 13 15
37 37 38 40 37 36 35 34 33 35 39 37 33 33 34 33 33 31 25 18 20 23 23 20 12 9 10 11 12 12 14 12 9 6 17 13 12 9 8 9 12 11 13 15
40 39 42 41 38 32 34 34 33 34 39 38 36 37 35 32 34 30 26 23 20 20 20 7 6 6 10 5 8 9 12 17 12 15 16 13 10 9 12 12 6 7 12 17
45 44 47 43 39 33 34 36 33 34 40 39 39 38 31 35 32 31 30 23 20 16 8 10 11 14 12 7 7 10 13 13 20 22 23 17 15 13 11 4 7 12 17 18
45 47 50 49 39 34 35 37 34 34 41 42 33 40 39 32 29 27 26 26 15 11 7 7 8 9 12 14 16 22 20 17 21 11 8 15 17 14 10 15 16 22 21 19
51 51 51 51 42 37 36 38 35 36 41 46 43 46 33 31 28 27 29 23 22 11 10 11 12 13 21 23 25 22 13 19 18 18 21 24 18 18 20 21 21 22 21 20
54 55 56 54 44 36 39 40 38 38 42 44 34 40 41 34 33 31 24 25 23 21 22 20 23 23 21 20 20 21 25 23 23 23 26 25 23 23 23 23 22 22 22 21
57 58 53 52 43 37 36 39 39 39 42 47 46 30 35 38 38 28 24 24 26 23 22 22 29 21 24 21 27 31 29 27 27 22 24 22 21 24 25 21 22 22 22 20
61 57 52 46 38 37 38 40 41 42 39 44 47 39 44 37 30 24 24 24 21 23 25 26 28 34 32 36 37 36 33 30 23 15 23 20 20 24 23 22 22 21 20 18
61 56 48 37 35 36 36 42 43 40 32 33 33 32 38 36 31 23 21 22 23 25 29 32 37 38 29 17 11 23 20 18 18 25 22 20 21 21 22 20 19 18 16 16
51 49 37 31 36 34 36 40 42 42 38 33 20 17 24 20 18 19 21 24 25 29 32 36 37 28 21 23 23 29 23 22 19 18 18 17 18 18 18 18 16 16 17 16
46 36 30 32 34 35 38 40 41 38 34 29 15 17 21 23 22 19 20 24 27 34 32 27 22 19 16 12 18 17 16 16 15 15 16 16 16 17 17 17 16 16 17 16
37 35 34 32 35 38 40 40 40 37 30 15 20 23 16 14 14 15 19 28 27 22 18 16 12 15 11 13 14 14 14 15 16 15 15 16 17 16 17 18 19 16 17 17
39 36 32 33 39 38 39 37 31 29 30 35 35 31 21 17 12 16 17 15 9 8 10 9 10 18 20 19 17 17 15 14 14 14 15 17 18 18 17 17 18 18 17 17
36 34 32 36 36 36 32 18 12 12 11 17 22 20 18 14 18 18 10 9 8 5 5 5 5 9 9 11 14 15 15 14 14 14 14 16 16 17 18 19 19 19 18 18
30 31 33 35 34 21 14 11 11 14 10 12 13 12 12 14 15 9 8 7 5 6 4 5 5 7 8 10 13 15 17 17 18 21 25 28 28 27 24 21 20 19 19 18
25 29 35 15 15 19 11 11 14 11 10 6 7 10 11 7 6 6 6 5 6 4 4 5 9 9 11 13 16 18 21 23 30 35 34 32 29 27 25 22 23 21 19 19
32 28 14 13 11 11 19 24 17 13 9 6 7 7 7 11 8 6 4 6 5 4 5 6 9 13 16 17 21 25 35 35 30 27 25 25 25 25 24 21 19 19 18 18
35 14 11 18 19 20 17 15 11 8 7 6 6 8 9 9 6 4 4 3 5 6 8 13 20 24 29 31 32 31 29 27 25 24 22 21 22 21 20 22 20 17 17 17
32 20 16 12 14 16 14 10 9 7 3 4 5 6 4 3 3 3 5 4 6 9 19 27 32 32 31 30 28 27 25 23 21 20 19 18 18 18 17 19 20 18 17 16
19 20 24 24 23 14 11 10 8 4 5 3 4 3 3 3 3 4 5 7 18 26 30 31 30 29 27 26 24 22 21 19 18 17 16 15 15 15 15 17 19 20 19 17

GFSNW_700_spd_330.txt.gz
Wind_Speed
28 29 28 28 28 28 29 30 28 22 27 22 27 25 25 22 21 22 19 15 14 16 15 18 10 8 10 18 23 26 8 11 16 29 16 10 13 13 18 3 7 9 8 3
28 29 31 30 31 32 33 32 27 23 26 17 28 27 28 22 21 22 20 18 19 15 20 12 11 14 14 20 22 15 12 4 11 9 5 11 14 20 18 17 10 6 6 2
30 31 32 32 32 33 34 34 27 29 20 29 26 28 23 25 23 23 20 25 21 17 22 16 15 24 20 22 24 16 21 15 13 13 23 28 27 24 16 14 6 13 7 19
31 32 33 34 34 35 36 34 29 29 26 24 26 29 28 23 22 26 29 19 17 17 17 21 20 15 17 25 26 16 11 21 23 21 24 22 19 23 18 15 10 5 14 15
32 33 34 35 36 36 37 36 34 35 35 32 31 27 29 27 23 28 28 26 20 21 24 25 31 28 25 24 21 18 22 17 18 31 19 15 17 23 20 15 11 8 10 11
33 34 35 36 37 39 40 35 34 35 36 34 33 31 29 30 28 28 29 29 27 29 29 24 26 26 28 31 30 26 29 29 15 10 13 21 17 19 19 15 12 12 9 12
35 36 36 37 41 42 46 39 34 34 39 36 35 34 31 29 29 31 29 29 27 29 28 32 33 24 18 17 17 20 23 17 15 14 16 1 8 18 19 13 12 13 14 11
37 36 36 38 42 42 46 42 32 33 43 39 40 33 36 35 35 33 34 29 24 26 27 25 15 10 9 15 14 13 17 17 13 8 12 17 20 21 14 13 15 17 17 12
38 38 36 44 42 45 48 46 34 35 40 47 40 43 35 40 37 32 33 33 30 23 19 13 7 6 6 6 6 10 11 14 22 16 7 6 8 13 16 16 15 13 7 13
40 45 46 44 44 47 49 47 38 38 43 48 37 40 43 40 37 37 35 32 27 27 20 12 12 13 13 7 8 8 12 12 23 27 21 17 19 14 13 7 13 12 15 19
45 47 48 46 46 48 43 46 42 39 44 47 45 33 38 42 43 38 34 30 28 16 15 11 13 12 12 13 16 15 17 13 13 17 10 11 17 15 12 17 18 23 23 24
49 53 51 48 50 48 42 44 43 38 41 48 49 47 47 41 36 37 36 38 36 20 12 12 11 13 15 19 11 20 18 22 18 15 16 25 27 29 27 25 26 26 24 25
53 57 54 53 53 49 43 40 39 39 43 45 46 35 41 49 35 35 37 36 35 35 34 30 28 24 21 21 17 22 21 21 25 27 30 31 30 32 30 25 24 25 27 25
52 56 59 59 58 49 38 37 40 38 40 45 53 46 34 41 44 38 35 35 32 29 27 27 29 29 21 27 26 26 29 34 32 32 30 29 29 29 27 24 24 23 23 23
48 48 49 46 45 41 38 37 40 38 35 41 50 51 51 46 42 39 37 28 24 34 35 33 32 33 32 39 40 38 39 34 29 29 28 25 26 26 24 24 24 24 24 22
38 41 42 43 41 38 34 41 41 38 36 46 43 39 42 46 45 42 34 28 31 35 37 35 33 36 30 21 24 35 31 25 20 24 21 22 23 28 26 24 24 22 22 21
38 39 36 35 36 37 34 40 40 38 37 37 27 29 28 26 28 27 27 27 28 27 29 33 37 37 33 39 41 39 31 24 20 19 22 24 22 22 23 22 21 19 19 19
39 37 33 36 38 36 38 38 39 37 42 40 19 19 27 35 31 25 24 25 23 27 30 35 35 34 28 17 25 20 16 15 16 15 18 20 20 20 20 20 19 18 18 18
40 39 33 33 34 40 42 42 40 39 36 23 21 25 26 22 20 20 19 21 20 24 27 25 18 18 13 14 14 14 15 17 18 18 18 19 19 18 18 18 19 18 18 19
39 37 31 35 41 40 39 38 38 35 33 35 39 40 32 27 16 14 11 12 9 9 13 11 11 21 23 23 21 21 20 20 20 20 19 19 19 19 19 18 17 17 18 17
37 28 32 36 37 35 29 23 15 13 10 19 29 32 29 24 20 16 9 7 6 5 5 6 6 7 7 8 9 14 18 19 19 21 21 20 19 19 20 22 21 20 18 18
33 24 27 30 31 23 15 13 12 12 12 16 17 16 14 14 13 11 8 7 6 6 4 5 5 2 3 8 12 16 19 21 22 23 25 27 29 31 32 30 27 26 24 21
26 29 31 17 14 18 13 12 12 12 13 13 11 10 10 9 9 7 6 6 6 4 5 4 5 5 12 16 18 20 22 25 27 29 33 37 35 33 31 27 25 23 22 23
28 36 28 15 13 15 21 28 22 19 17 12 10 10 7 8 5 5 5 6 5 4 5 4 6 15 21 24 26 27 28 31 32 29 28 26 25 24 24 23 20 20 18 18
33 18 12 22 29 30 19 20 20 15 13 12 9 9 7 4 5 5 5 4 4 5 5 12 20 26 29 29 28 27 28 28 27 25 23 22 21 20 19 20 18 17 17 16
35 18 18 24 22 23 23 18 13 11 10 8 6 2 2 5 4 4 4 3 4 7 17 25 29 30 29 27 27 27 26 25 23 21 20 19 18 17 16 16 15 15 17 16
17 21 27 23 15 12 12 11 10 10 9 6 4 3 4 2 2 3 4 5 15 22 25 26 26 26 25 24 23 21 20 20 19 17 16 15 14 14 13 13 13 13 15 17